Tracking 30061 objects as of 8-Dec-2024
HD Live streaming from Space Station
objects crossing your sky now

TITAN 3C TRANSTAGE R/B

Track TITAN 3C TRANSTAGE R/B now!


NORAD ID: 2770
Int'l Code: 1967-040F
Perigee: 7,863.7 km
Apogee: 111,859.9 km
Inclination: 18.0 °
Period: 2,827.3 minutes
Semi major axis: 66232 km
RCS: 3.1623 m2 (large)
Launch date: April 28, 1967
Source: United States (US)
Launch site: AIR FORCE EASTERN TEST RANGE (AFETR)

Note: This is a ROCKET BODY
Your satellite tracking list
Your tracking list is empty




NASA's NSSDC Master Catalog

Two Line Element Set (TLE):
1  2770U 67040F   24344.66786411 -.00000096  00000-0  00000+0 0  9994
2  2770  17.9680 224.1150 7850815 324.0098   0.4618  0.50932304101663
Source of the keplerian elements: AFSPC